Location: *
(57.8420°S, 159.8600°W)
Time: 03:24:03
(UTC+00:00)

USA 238 - Pass Details

Date: 18 May 2021
Orbit: 989 x 1223 km, 63.4° (Epoch: 18 June)

Event Time Altitude Azimuth Distance (km) Brightness Sun altitude
Rises 06:22:25 0° 258° (WSW) 4,064 7.9 -30.6°
Reaches altitude 10° 06:25:17 10° 254° (WSW) 3,071 7.0 -31.0°
Maximum altitude 06:32:29 56° 176° (S) 1,309 4.1 -31.9°
Enters shadow 06:32:41 56° 169° (SSE) 1,310 4.0 -31.9°
